Regional Weather Roundup
Issued by NWS

Home | Current Version | Previous Version | Graphics & Text | Print | Product List | Glossary On
Versions: 1 2 3 4 5 6 7 8 9 10 11 12 13 14 15 16 17 18 19 20 21 22 23 24 25 26 27 28 29 30 31 32 33 34 35 36 37 38 39 40 41 42 43 44 45 46 47 48 49 50
000
ASUS43 KLOT 010810
RWRIL

ILLINOIS REGIONAL WEATHER ROUNDUP
NATIONAL WEATHER SERVICE CHICAGO/ROMEOVILLE IL
200 AM CST SUN FEB 01 2015

NOTE: "FAIR" INDICATES FEW OR NO CLOUDS BELOW 12,000 FEET WITH NO
SIGNIFICANT WEATHER AND/OR OBSTRUCTIONS TO VISIBILITY.

* THESE STATIONS ARE NOT UNDER NWS QUALITY CONTROL. THEY ALSO MAY NOT
  REPORT WEATHER SUCH AS PRECIPITATION OR FOG.

ILZ001-002-007-009-015-016-024-010900-
NORTHWEST ILLINOIS

CITY           SKY/WX    TMP DP  RH WIND       PRES   REMARKS
MOLINE         LGT SNOW  32  31  96 E8        29.97F VSB 1   WCI  25
STERLING*        N/A    N/A N/A N/A MISG        N/A
SAVANNA*       LGT SNOW  32  32  99 E9        30.02F VSB 3/4 WCI  24
$$

ILZ003-004-008-010-011-017-018-010900-
NORTH CENTRAL ILLINOIS

CITY           SKY/WX    TMP DP  RH WIND       PRES   REMARKS
ROCKFORD       LGT SNOW  30  27  88 E10       30.08F VSB 1   WCI  21
FREEPORT*      LGT SNOW  29  28  96 E10       30.07F WCI  20
ROCHELLE*      LGT SNOW  31  31 100 E9        30.06F VSB 3/4 WCI  23
DE KALB*       LGT SNOW  29  28  96 E12       30.07F WCI  19
PERU*          LGT SNOW  33  33 100 E6        30.05F WCI  28
$$

ILZ005-006-012>014-019>023-010900-
NORTHEAST ILLINOIS

CITY           SKY/WX    TMP DP  RH WIND       PRES   REMARKS
CHICAGO-OHARE  LGT SNOW  31  30  96 E6        30.10F VSB 3/4 WCI  25
CHICAGO-MIDWAY LGT SNOW  33  31  92 E8        30.11F VSB 1   WCI  26
AURORA         LGT SNOW  33  30  88 E8        30.08F VSB 3/4 WCI  26
LANSING*       LGT SNOW  32  32 100 CALM      30.11F
JOLIET*        LGT SNOW  32  32  99 CALM      30.09F VSB 3/4
WAUKEGAN       LGT SNOW  29  28  96 NE13      30.11F VSB 1   WCI  19
DUPAGE AIRPORT LGT SNOW  31  29  92 E9        30.08F FOG     WCI  23
KANKAKEE*      LGT SNOW  32  32  99 E3        30.09F
WHEELING       LGT SNOW  31  29  92 E5        30.12F VSB 3/4 WCI  26
MORRIS*        LGT SNOW  32  32 100 E3        30.07F
ROMEOVILLE*    LGT SNOW  32  32 100 E3        30.09F
NORTHERLY ISL    N/A     32  30  93 E9          N/A  WCI  24
$$

LMZ740>746-010900-
SOUTHERN LAKE MICHIGAN

STATION/POSITION SKY/WX   TEMP    WIND        PRES    VSBY  WAVE
                          AIR SEA DIR/SP/G                  HT/PER
                          (F)     (DEG/KT/KT) (MB)    (MI)  (FT/S)
WAUKEGAN HARBOR            30      50/ 18/ 22   N/A
HARRISON CRIB              31      70/ 12/ 13   N/A
BURNHAM HARBOR             31      80/  8/  9   N/A
CALUMET HARBOR             31      80/  7/ 10   N/A
MICHIGAN CITY              30      50/  7/  8   N/A
$$

ILZ025>027-034>036-040-047-049-050-058-095>099-010900-
WEST-CENTRAL ILLINOIS

CITY           SKY/WX    TMP DP  RH WIND       PRES   REMARKS
QUINCY         LGT SNOW  33  31  92 SE14      29.92F VSB 3/4 WCI  23
GALESBURG*     LGT SNOW  32  32 100 SE7       29.97F WCI  26
MACOMB*        LGT SNOW  32  32 100 SE12      29.99F WCI  23
JACKSONVILLE*  LGT SNOW  35  33  91 SE8       29.99S WCI  28
PITTSFIELD*    LGT SNOW  33  32  94 SE9       29.97F VSB 1   WCI  26
$$

ILZ028>032-037-038-041>044-048-051>054-059>061-010900-
CENTRAL ILLINOIS

CITY           SKY/WX    TMP DP  RH WIND       PRES   REMARKS
PONTIAC        MIX PCPN  33  33 100 SE6       30.06F WCI  28
BLOOMINGTON    LGT SNOW  33  33 100 SE7       30.05F VSB 3/4 WCI  27
DECATUR        CLOUDY    34  30  85 SE7       30.03F WCI  28
PEORIA         SNOW      34  32  92 SE6       30.03F VSB 1/2 WCI  29
LACON*         LGT SNOW  32  31  96 SE5       30.03F WCI  27
LINCOLN*       LGT RAIN  34  33  96 E13       30.03F WCI  25
SPRINGFIELD    LGT SNOW  35  30  82 SE15      30.01F WCI  25
TAYLORVILLE    LGT RAIN  34  30  86 E8        30.00F WCI  27
$$

ILZ033-039-045-046-055>057-062-063-010900-
EAST-CENTRAL ILLINOIS

CITY           SKY/WX    TMP DP  RH WIND       PRES   REMARKS
CHAMPAIGN      LGT SNOW  33  31  92 SE12      30.06F FOG     WCI  24
DANVILLE*      CLOUDY    32  32 100 E6        30.05F FOG     WCI  26
RANTOUL*       CLOUDY    34  33  96 E5        30.07F FOG     WCI  30
MATTOON        CLOUDY    34  28  79 E5        30.03F WCI  30
PARIS*         CLOUDY    33  32  96 E5        30.09F WCI  28
$$

ILZ079-100>102-010900-
SOUTHWEST ILLINOIS

CITY           SKY/WX    TMP DP  RH WIND       PRES   REMARKS
ALTON          CLOUDY    37  27  67 E5        29.98F WCI  34
BELLEVILLE     CLOUDY    37  29  70 SE5       29.97F WCI  34
CAHOKIA*       CLOUDY    39  27  62 SE7       29.97F WCI  34
SPARTA*        CLOUDY    38  26  62 SE8       29.98F WCI  32
$$

ILZ064>066-069>071-074>076-080>082-084>086-088>090-092>094-010900-
SOUTH-CENTRAL ILLINOIS

CITY           SKY/WX    TMP DP  RH WIND       PRES   REMARKS
CARBONDALE     CLOUDY    40  23  50 SE3       29.98F
CAIRO*         CLOUDY    44  26  49 SE8       30.00F
EFFINGHAM*     CLOUDY    35  26  67 E14       30.00F WCI  26
MARION         CLOUDY    41  23  48 SE6       29.99F
MT. VERNON     CLOUDY    37  25  60 E7        29.99F WCI  32
CENTRALIA*     CLOUDY    38  26  61 SE7       29.98F WCI  32
SALEM*         CLOUDY    40  27  59 SE7       30.00F
METROPOLIS*    CLOUDY    43  22  44 SE6       30.00F
$$

ILZ067-068-072-073-078-083-087-091-010900-
SOUTHEAST ILLINOIS

CITY           SKY/WX    TMP DP  RH WIND       PRES   REMARKS
LAWRENCEVILLE    N/A     36  27  69 E7        30.07F WCI  30
FLORA*         CLOUDY    36  27  70 E6        30.02F WCI  31
FAIRFIELD*     CLOUDY    38  27  64 E8        30.01F WCI  32
HARRISBURG*    CLOUDY    38  28  64 E9        30.03F WCI  32
ROBINSON*      CLOUDY    34  29  83 E5        30.09F WCI  30
CARMI*         CLOUDY    39  30  69 E8        30.03F WCI  34
$$

ABBREVIATIONS USED IN REMARKS
   TC - TEMPERATURE IN CELSIUS
  WCI - WIND CHILL INDEX
   HX - HEAT INDEX
  VSB - VISIBILITY
$$




USA.gov is the U.S. government's official web portal to all federal, state and local government web resources and services.